Theta_e
285 283 283 282 282 282 281 281 281 282 283 282 282 282 281 281 281 280 281 281 281 281 282 280 280 281 282 284 285 287 286 286 281 282 284 285 284 284 284 286 286 286 288
284 283 282 282 281 280 280 280 281 281 282 282 282 282 281 280 280 279 279 280 279 280 281 279 279 281 281 283 284 285 285 285 283 280 283 282 282 283 283 283 284 285 285
283 282 281 281 280 280 279 280 280 281 281 282 281 281 281 280 279 280 279 279 278 279 281 280 278 278 280 282 284 284 286 285 284 282 281 282 282 283 281 281 281 281 282
283 281 280 280 280 280 280 279 280 280 280 280 281 281 281 280 280 279 280 279 278 280 281 280 278 277 280 282 283 284 285 284 283 282 281 281 281 281 280 278 277 279 279
281 280 280 280 280 280 279 279 279 280 279 280 280 280 281 281 282 279 279 278 278 279 279 279 279 278 281 282 282 283 284 283 282 281 281 280 279 278 277 278 277 277 277
281 280 280 280 280 280 279 279 279 279 279 279 279 280 280 282 284 283 280 278 278 278 278 278 279 278 278 281 282 284 285 284 282 281 280 278 278 279 279 278 279 278 274
281 280 280 280 280 279 279 279 279 278 278 278 279 279 281 281 284 283 281 279 278 277 277 278 278 279 279 277 279 280 281 284 284 282 280 280 279 281 281 279 278 277 275
280 280 279 279 279 279 279 278 278 278 277 278 278 279 280 282 284 282 281 278 277 277 277 278 278 278 280 278 277 276 275 278 280 280 279 280 281 281 279 279 277 276 276
280 279 279 279 279 279 278 277 277 278 277 278 278 278 279 282 284 282 280 278 278 277 277 278 278 278 281 280 276 275 274 274 278 280 280 280 281 281 281 279 277 275 273
280 280 279 280 279 278 278 278 278 278 279 279 279 278 278 281 284 283 280 279 277 277 277 277 280 278 280 280 275 274 271 272 272 273 273 274 273 273 275 273 275 273 271
280 280 279 279 279 279 279 279 278 278 279 278 278 278 278 280 282 283 281 278 278 277 276 276 276 279 279 279 278 275 273 272 272 271 271 272 272 270 270 270 271 272 271
279 279 279 278 279 279 278 278 278 278 277 276 276 276 277 280 281 282 282 281 279 277 275 275 275 277 278 278 276 276 276 272 269 268 268 268 268 268 269 269 269 269 270
278 277 277 277 279 279 278 277 277 277 276 276 275 274 275 278 279 281 281 280 279 276 276 276 276 275 273 272 275 273 269 268 267 265 264 265 266 265 266 264 264 264 263
277 276 277 277 276 277 278 278 277 276 275 276 275 273 274 276 277 278 278 276 276 274 273 271 273 272 272 269 267 267 266 265 265 262 259 259 261 261 261 261 257 257 257
277 276 276 277 276 276 276 277 277 276 277 274 273 274 272 275 278 279 278 274 270 271 264 263 262 264 263 263 261 262 262 261 259 256 257 258 259 260 260 257 254 254 254
276 276 276 276 276 276 276 276 281 280 281 280 279 276 276 279 281 281 281 279 277 274 259 256 257 257 259 256 256 256 257 257 255 255 254 254 254 255 255 256 255 252 252
277 276 276 276 276 275 275 275 275 279 281 281 280 280 280 280 280 280 279 279 277 270 258 254 255 255 254 255 255 255 255 254 252 253 253 253 252 252 254 254 252 252 253
277 276 276 276 276 276 276 275 276 275 275 276 280 279 280 280 280 280 278 272 261 262 256 255 254 253 254 254 254 254 254 253 252 252 252 249 249 251 251 251 250 250 249
276 276 277 277 276 276 275 274 274 274 273 273 272 278 278 280 280 280 277 260 261 259 256 254 253 253 253 252 251 250 250 250 249 249 248 248 247 249 249 247 249 251 250
277 276 276 276 276 275 274 273 271 271 269 271 271 272 266 272 269 262 258 258 260 261 259 258 253 252 251 251 250 249 249 249 249 248 248 247 247 247 248 248 247 249 248
277 276 276 276 275 275 274 272 272 270 269 269 270 270 273 271 267 264 262 261 262 262 260 259 255 254 250 249 248 249 249 249 247 247 247 247 246 249 245 247 246 245 246
277 276 275 275 275 275 274 274 272 271 271 269 264 266 277 268 264 264 264 264 263 261 260 260 258 256 255 254 252 251 250 249 246 246 247 246 246 246 246 246 246 246 246
277 275 275 275 275 275 274 274 273 272 271 270 269 269 273 269 266 265 265 264 262 260 257 257 257 254 250 250 251 253 254 252 252 249 248 247 246 246 245 247 246 247 247
277 276 275 275 275 274 274 273 273 273 272 271 269 270 272 269 267 266 265 264 262 260 259 258 259 258 254 250 248 249 248 247 247 249 249 248 247 246 246 245 246 246 247
277 276 276 275 274 274 274 274 274 272 272 271 270 270 271 269 267 266 265 264 262 261 259 259 259 259 258 256 253 252 251 257 249 247 245 247 248 246 245 246 246 246 247
277 277 276 275 275 274 274 274 274 273 272 271 270 270 270 268 268 267 265 264 263 262 261 260 259 258 258 258 257 257 259 259 253 252 247 248 248 245 245 246 246 246 247
Wind_Speed
5 5 6 5 5 5 6 6 5 5 7 9 9 10 12 11 11 10 10 10 12 11 12 13 13 13 11 10 10 8 7 6 4 3 5 7 11 12 13 14 16 17 19
6 5 6 5 6 6 6 6 5 6 6 8 8 9 11 10 10 10 11 11 12 14 14 13 14 11 14 12 10 11 8 10 5 6 6 7 10 11 13 17 14 14 16
6 6 5 6 6 7 6 5 6 5 7 8 8 8 9 9 9 9 8 10 11 11 12 13 13 13 13 12 12 10 6 7 8 6 6 7 8 6 11 13 13 15 13
8 6 6 6 6 6 5 5 5 5 6 7 7 7 6 5 8 8 9 9 9 10 12 11 12 12 14 15 12 13 6 6 6 7 6 5 5 7 8 9 11 12 11
9 7 6 6 6 7 5 5 6 5 6 6 7 7 6 6 6 7 8 9 9 10 11 11 12 12 19 18 10 13 11 5 5 6 7 5 6 6 7 5 8 7 9
9 8 6 6 7 8 5 5 6 6 5 6 7 7 6 5 15 15 10 7 9 11 12 11 11 14 15 20 20 23 21 9 7 5 5 7 6 5 4 3 3 3 3
10 9 8 7 8 8 6 6 7 5 4 6 7 6 6 5 13 13 12 6 8 9 10 11 10 9 12 11 16 19 20 25 23 8 7 6 5 3 2 4 4 4 4
11 11 9 8 8 9 7 6 6 4 4 5 6 6 5 7 12 11 11 5 6 8 10 11 10 11 15 12 10 10 12 13 13 10 11 10 7 7 5 3 4 3 2
12 12 11 10 10 10 9 7 6 5 4 6 5 5 5 7 11 11 7 5 6 8 8 11 10 11 21 20 11 10 10 11 12 17 19 18 19 18 11 3 3 3 2
14 13 12 11 11 11 9 8 6 5 6 4 7 5 5 4 10 11 8 3 5 5 7 10 19 13 21 21 11 9 9 11 9 9 10 12 14 13 19 9 4 2 2
13 12 11 10 11 10 9 6 7 7 6 5 6 5 4 5 5 11 10 4 4 5 6 6 7 19 20 21 18 11 10 7 10 7 7 7 9 10 8 8 8 5 2
14 14 12 11 9 8 9 7 6 7 5 5 5 4 3 4 5 8 10 11 9 6 5 5 7 16 18 21 14 17 16 10 5 6 6 7 6 5 6 7 9 8 8
15 13 12 11 10 9 10 8 7 6 5 5 6 3 3 3 2 5 8 11 11 7 5 9 14 16 16 14 20 18 11 7 5 7 5 4 2 4 4 4 3 3 3
16 14 12 12 10 8 6 6 6 7 6 6 6 4 3 4 2 2 1 3 8 7 8 6 10 13 16 11 6 10 7 6 5 4 2 3 4 4 4 3 3 4 4
15 13 13 10 11 9 6 7 6 2 6 7 5 6 6 5 3 6 4 3 2 8 5 3 3 4 5 6 5 5 5 5 6 3 4 4 4 4 4 4 3 4 5
16 13 12 11 9 8 8 5 9 9 11 11 12 8 4 10 9 7 9 12 11 12 4 3 3 2 3 1 2 3 3 4 3 2 3 3 3 3 3 4 4 4 4
17 16 12 12 11 11 10 10 10 10 14 13 14 12 11 12 12 9 9 10 10 7 4 2 3 2 1 1 2 2 1 2 2 2 2 3 2 2 3 4 3 3 4
15 19 14 13 12 12 11 10 9 10 10 8 14 12 13 13 13 13 12 9 3 4 2 3 3 3 1 1 2 2 1 2 2 3 3 2 3 3 3 3 2 2 2
14 13 12 11 11 11 10 9 8 7 7 7 4 11 9 13 13 13 13 3 4 3 3 3 3 3 2 1 1 2 3 1 1 2 2 2 2 3 2 2 1 3 3
14 18 15 12 11 11 10 10 8 7 7 8 9 8 3 5 4 2 2 3 3 4 4 4 4 3 4 3 3 2 3 1 1 2 1 1 2 2 2 1 2 2 1
12 12 16 12 12 12 11 12 10 10 9 9 8 7 16 9 7 6 5 5 6 5 6 5 5 4 3 3 3 3 4 2 1 1 1 1 1 2 1 2 1 2 1
13 14 13 13 12 12 12 11 11 11 10 9 5 6 22 5 5 6 6 7 6 4 3 5 4 4 5 5 5 4 4 4 3 2 1 1 1 2 2 2 3 2 3
14 15 15 12 12 14 12 11 11 11 11 10 8 9 11 9 8 8 8 6 6 6 5 4 4 3 2 3 3 4 5 5 5 4 4 2 2 2 1 2 1 2 3
16 17 16 14 13 13 13 13 12 14 12 11 10 10 10 9 9 10 7 6 6 5 5 6 6 7 5 3 3 2 2 3 3 4 6 5 3 3 2 1 0 2 1
16 17 16 15 15 14 14 13 13 12 12 11 10 9 9 8 7 7 6 6 6 6 7 6 5 7 9 9 7 7 5 5 5 5 3 5 5 4 3 2 2 1 1
16 17 15 14 14 14 14 14 14 13 13 11 11 10 10 10 9 9 8 7 7 7 6 6 7 9 9 7 9 9 8 8 6 5 3 3 4 3 2 3 3 2 1
Wind_Direction
113 107 97 80 67 65 64 41 27 51 53 53 37 33 34 31 27 26 28 14 22 19 25 19 5 359 3 351 346 345 347 340 66 33 47 17 35 34 45 40 34 40 42
131 119 107 95 81 71 61 52 24 46 50 62 40 41 35 31 26 27 27 16 21 27 26 16 6 0 7 356 348 346 13 31 37 39 23 36 42 33 41 51 41 39 39
130 123 113 107 97 88 76 60 51 43 46 54 53 45 40 26 22 26 27 26 22 20 23 20 6 3 8 359 357 355 9 45 46 50 35 28 32 26 51 48 45 41 37
137 132 128 123 113 99 89 77 64 50 56 45 41 41 38 25 32 21 27 34 29 23 23 15 9 8 12 5 358 5 8 43 49 59 47 24 17 27 43 53 52 43 39
143 137 146 136 120 104 94 81 71 63 54 54 47 38 27 35 39 32 28 37 36 24 25 16 13 14 19 20 12 11 10 26 51 56 61 48 32 31 38 39 68 57 47
150 147 148 141 131 116 110 97 86 74 56 49 47 51 35 38 49 47 42 38 35 29 27 15 13 16 15 20 26 30 33 23 41 53 69 87 74 56 62 38 10 30 59
155 150 149 152 138 126 127 111 102 91 76 65 48 36 47 35 52 53 45 38 42 33 28 20 15 16 22 17 13 28 32 38 40 34 48 33 40 35 10 26 13 42 54
159 155 151 153 148 134 132 126 114 106 94 79 64 43 9 60 49 54 50 36 43 42 28 27 18 19 27 25 16 26 33 33 36 36 39 38 46 39 35 28 48 49 63
166 162 160 158 155 145 145 143 131 122 110 99 77 61 29 55 54 52 48 40 41 45 33 31 28 27 34 32 25 24 33 33 32 45 53 49 46 46 39 63 43 54 30
173 167 161 159 160 153 151 152 146 139 128 113 97 58 34 26 50 59 54 48 43 39 40 37 36 40 45 43 38 28 34 21 20 26 32 37 37 32 37 37 2 67 49
162 154 158 158 160 155 148 154 150 145 135 123 107 91 38 19 44 67 71 54 59 46 49 31 41 42 51 51 46 47 46 25 23 25 31 31 31 33 29 26 29 27 61
154 154 158 151 156 159 150 153 152 146 143 133 120 104 70 50 51 63 68 71 66 62 54 45 50 56 52 55 48 45 48 38 27 31 36 27 19 15 18 31 31 36 41
152 155 156 148 156 160 154 158 155 152 152 154 137 149 128 121 80 69 81 79 79 75 70 71 63 62 59 50 52 43 32 27 22 51 30 6 350 317 335 2 2 11 46
157 157 157 154 156 156 157 160 165 165 168 166 150 163 149 124 156 165 121 74 89 84 73 49 68 70 64 61 42 38 29 27 29 15 5 314 322 3 18 353 33 344 53
156 156 160 160 165 159 162 167 176 186 182 169 162 164 156 134 182 181 169 125 124 114 80 34 15 32 38 35 31 30 28 29 39 2 13 11 10 5 15 348 30 13 68
156 162 165 161 159 160 157 139 175 173 177 172 161 159 171 148 147 149 142 144 137 133 61 83 46 35 68 18 48 14 31 23 15 9 24 34 32 22 9 360 28 42 60
164 163 161 163 163 163 164 158 161 178 177 172 172 169 177 159 157 150 149 148 140 114 100 102 120 121 168 109 93 71 49 348 327 27 69 31 33 31 38 21 5 36 25
165 167 167 168 166 167 169 165 163 172 170 170 186 175 182 175 169 165 148 119 86 61 89 143 150 155 211 157 130 109 24 31 60 18 37 64 53 68 38 34 28 91 43
164 169 171 168 169 168 163 160 168 168 172 164 167 178 181 178 182 179 168 157 162 160 159 150 167 163 183 215 192 113 113 62 70 83 26 57 61 105 72 29 67 62 115
171 171 170 166 163 164 165 164 163 166 169 179 185 181 165 126 173 196 187 161 172 166 170 164 177 170 166 175 163 132 95 58 53 72 81 75 75 99 103 94 45 79 24
169 167 170 168 172 172 170 173 175 175 181 192 199 191 180 179 187 186 189 188 181 182 181 174 173 175 164 173 154 142 130 143 184 152 127 64 40 82 125 107 95 77 70
171 170 173 175 172 176 177 174 176 180 183 190 188 189 193 198 176 194 198 193 191 181 178 169 171 183 176 173 171 160 154 161 181 177 160 148 113 92 80 55 42 46 38
173 172 176 178 179 175 174 176 180 182 184 188 180 182 195 195 192 197 202 191 181 178 165 162 165 181 205 191 176 169 165 185 192 164 153 160 133 98 92 107 112 47 41
175 178 179 179 176 178 179 181 186 185 184 182 183 189 199 190 200 195 194 177 176 174 169 180 181 177 174 181 185 193 200 162 157 175 156 145 161 141 115 92 126 115 114
179 179 183 181 180 184 180 184 188 185 183 182 186 191 192 182 187 192 181 185 180 180 186 183 186 189 182 183 185 192 205 179 168 159 141 134 150 155 130 126 147 91 73
184 184 183 182 183 186 183 184 187 184 184 186 184 194 190 190 193 182 169 181 187 188 186 189 188 188 187 184 187 182 183 169 171 169 142 136 141 149 135 137 135 116 113